sat.trackr.live / text

‹ back to catalog

ZHONGXING-10

NORAD 37677 · 2011-026A

PAYLOAD ACTIVE UNKNOWN

§ Identity

Operator
Country
PRC
Launch date
2011-06-20
Launch site
XICLF
Launch vehicle
Mass (kg)
RCS (m²)
50.12

Purposes: comms

External: N2YO · Heavens-Above · Gunter

§ Orbital elements

Epoch: 2026-09-16T23:16:57.553248Z

Period
1,436.09 min
Inclination
1.2775°
Eccentricity
0.0002613
Mean motion
1.00272197 rev/d
Perigee alt
35,775.5 km
Apogee alt
35,797.5 km
Semi-major
42,164.6 km
B*
0.0000e+0
RAAN
82.9635°
Arg perigee
69.1325°
Mean anomaly
278.5051°
Rev number
5,591

§ Raw data

ZHONGXING-101 37677U 11026A   26259.97011057 -.00000193  00000+0  00000+0 0  99962 37677   1.2775  82.9635 0002613  69.1325 278.5051  1.00272197 55912

JSON: /api/v1/satellites/37677 · /tle

For live sub-satellite position, see the globe view (requires WebGL).

§ Visibility from observer

Set your observer location to see the next 7 days of passes ≥ 10°. The values pass through the URL so the page stays shareable.

No JS? Fill the form by hand. The geolocation button needs JavaScript.